Regional Weather Roundup
Issued by NWS

Home | Current Version | Previous Version | Graphics & Text | Print | Product List | Glossary On
Versions: 1 2 3 4 5 6 7 8 9 10 11 12 13 14 15 16 17 18 19 20 21 22 23 24 25 26 27 28 29 30 31 32 33 34 35 36 37 38 39 40 41 42 43 44 45 46 47 48 49 50
958
ASUS43 KFSD 270802
RWRSD

WEATHER ROUNDUP FOR SOUTH DAKOTA
NATIONAL WEATHER SERVICE SIOUX FALLS SD
200 AM CST MON FEB 27 2017

NOTE: "FAIR" INDICATES FEW OR NO CLOUDS BELOW 12,000 FEET WITH NO
SIGNIFICANT WEATHER AND/OR OBSTRUCTIONS TO VISIBILITY.


SDZ001>005-009-010-012>017-270900-
NORTHWEST AND NORTH CENTRAL SOUTH DAKOTA

CITY           SKY/WX    TMP DP  RH WIND       PRES   REMARKS
BUFFALO          N/A     23  20  88 E7        29.65F WCI  15
FAITH            N/A     24  24 100 E9        29.76S WCI  14
MOBRIDGE       PTCLDY    21  16  81 N3        29.81S
$$

SDZ012>016-024>037-041>051-057-063-072>074-270900-
SOUTHWEST AND SOUTH CENTRAL SOUTH DAKOTA

CITY           SKY/WX    TMP DP  RH WIND       PRES   REMARKS
RAPID CTY ARPT CLOUDY    25  15  66 SE6       29.72F WCI  18
PIERRE         PTCLDY    26  14  60 CALM      29.80F
CUSTER         CLOUDY    16   7  67 SW7       29.63F WCI   6
ELLSWORTH AFB  CLOUDY    26  17  68 SE8       29.71F WCI  17
PHILIP         MOCLDY    21  15  78 W6        29.80S WCI  13
PINE RIDGE     CLOUDY     7   3  84 CALM      29.77S
SPEARFISH      FAIR      19  10  68 S3        29.68F
WINNER         FAIR      24  12  60 SW14      29.83F WCI  12
$$

SDZ004>011-016>023-039-040-270900-
NORTHEAST SOUTH DAKOTA

CITY           SKY/WX    TMP DP  RH WIND       PRES   REMARKS
ABERDEEN       CLOUDY    22  18  85 N7        29.87R WCI  13
WATERTOWN      CLOUDY    25  21  85 SW8       29.83R WCI  16
BROOKINGS      CLEAR     26  21  81 S9        29.86S WCI  17
SISSETON         N/A     22  20  92 E5        29.89R WCI  16
$$

SDZ017-020-022-023-036>040-048>070-270900-
SOUTHEAST SOUTH DAKOTA

CITY           SKY/WX    TMP DP  RH WIND       PRES   REMARKS
SIOUX FALLS    CLEAR     27  20  75 SW8       29.92R WCI  19
HURON          CLEAR     22  19  89 CALM      29.85S
CHAMBERLAIN    CLEAR     25  19  80 CALM      29.86S
MITCHELL       PTCLDY    26  19  74 S12       29.88F WCI  16
YANKTON        CLEAR     21  16  79 CALM      29.93S
$$

ABBREVIATIONS USED IN REMARKS
   TC - TEMPERATURE IN CELSIUS
  WCI - WIND CHILL INDEX
   HX - HEAT INDEX
  VSB - VISIBILITY





USA.gov is the U.S. government's official web portal to all federal, state and local government web resources and services.